This demonstration page uses our WeatherBlox Daily Observations layout. Learn more.

Left ArrowRight Arrow

39.08367, -84.50855

Hourly Observations for May 21, 2017

Temp ( °F °C ) Dew Point ( °F °C ) Humidity (%) Winds ( mph kmh ) Pressure ( in mb ) Visibility ( mi km ) Precip ( " mm )
12:53 am 00:53 Mostly Cloudy with Light Rain 65 18.3 65 18.3 100 100 N N/A 29.99 1016 10 16 0.02 0.51
1:53 am 01:53 Mostly Cloudy 65 18.3 65 18.3 100 100 SW 5 7 29.99 1016 10 16 N/A
2:53 am 02:53 Mostly Cloudy with Light Rain 65 18.3 65 18.3 100 100 N N/A 30.01 1016 9 14 N/A
3:53 am 03:53 Mostly Cloudy with Light Rain 66 18.9 65 18.3 96 96 N N/A 29.99 1016 10 16 0.01 0.25
4:53 am 04:53 Cloudy with Light Rain 65 18.3 65 18.3 100 100 SW 3 6 30.01 1016 9 14 0.02 0.51
5:14 am 05:14 Cloudy with Light Rain 65 18.3 65 18.3 100 100 SSW 5 7 30.00 1016 10 16 N/A
5:50 am 05:50 Cloudy with Light Rain 66 19 64 18 94 94 S 7 11 30.00 1016 8 13 0.01 0.25
5:53 am 05:53 Cloudy with Light Rain 66 18.9 65 18.3 96 96 S 8 13 30.02 1017 7 11 0.01 0.25
6:53 am 06:53 Cloudy with Light Rain 66 18.9 66 18.9 100 100 S 8 13 30.01 1016 9 14 0.06 1.52
7:29 am 07:29 Cloudy with Light Rain 67 19.4 66 18.9 97 97 SSW 6 9 30.00 1016 10 16 0.01 0.25
7:53 am 07:53 Mostly Cloudy 68 20 67 19.4 96 96 S 3 6 30.03 1017 10 16 0.01 0.25
8:35 am 08:35 Mostly Cloudy 69 20.6 68 20 96 96 S 7 11 30.00 1016 10 16 N/A
8:53 am 08:53 Mostly Cloudy 69 20.6 68 20 96 96 S 7 11 30.03 1017 10 16 N/A
9:53 am 09:53 Cloudy 69 20.6 67 19.4 93 93 S 8 13 30.03 1017 10 16 N/A
10:53 am 10:53 Mostly Cloudy 70 21.1 68 20 93 93 S 10 17 30.02 1017 10 16 N/A
11:53 am 11:53 Cloudy 71 21.7 67 19.4 87 87 S 12 19 30.03 1017 10 16 N/A
12:53 pm 12:53 Cloudy 72 22.2 68 20 87 87 SSW 10 17 30.02 1017 10 16 N/A
1:53 pm 13:53 Cloudy 73 22.8 69 20.6 87 87 S 10 17 30.01 1016 10 16 N/A
2:53 pm 14:53 Mostly Cloudy 76 24.4 70 21.1 82 82 S 12 19 29.99 1016 10 16 N/A
3:53 pm 15:53 Mostly Cloudy 78 25.6 70 21.1 76 76 S 15 24 29.97 1015 10 16 N/A
4:31 pm 16:31 Mostly Cloudy with Light Thunderstorms 75 23.9 69 20.6 82 82 SSW 10 17 29.94 1014 10 16 N/A
4:53 pm 16:53 Cloudy with Light Thunderstorms 74 23.3 68 20 82 82 SW 13 20 29.97 1015 9 14 N/A
5:16 pm 17:16 Cloudy with Nearby Thunderstorms 69 20.6 65 18.3 87 87 SSW 12 19 29.94 1014 10 16 0.01 0.25
5:23 pm 17:23 Mostly Cloudy 69 20.6 64 17.8 84 84 SSW 12 19 29.94 1014 10 16 0.01 0.25
5:53 pm 17:53 Partly Cloudy 72 22.2 68 20 87 87 S 8 13 29.96 1014 10 16 0.01 0.25
6:53 pm 18:53 Mostly Sunny 75 23.9 68 20 79 79 SSW 7 11 29.94 1014 10 16 N/A
7:53 pm 19:53 Partly Cloudy 72 22.2 69 20.6 91 91 SSW 7 11 29.95 1014 10 16 N/A
8:53 pm 20:53 Mostly Cloudy 70 21.1 68 20 93 93 N N/A 29.96 1015 10 16 N/A
9:53 pm 21:53 Partly Cloudy 68 20 67 19.4 96 96 W 3 6 29.99 1016 10 16 N/A
10:53 pm 22:53 Mostly Cloudy 68 20 61 16.1 78 78 WSW 7 11 30.01 1016 10 16 N/A
11:53 pm 23:53 Clear 67 19.4 56 13.3 68 68 WNW 7 11 30.04 1017 10 16 N/A

Powered by AerisWeather